• En España
  • Lista de países
  • Para 7 días
  • Temperatura del agua
  • Mapa Satelital
  • El tiempo en el mapa
  • Informadores
  • user-avatar
    Iniciar sesión

    Tiempo cada hora Quarteira

    Hoy, 20 Octubre, Sábado

    Tiempo Temperatura Precipitaciones Viento Presión Humedad
    00:00 +15°C° 0 mm 4 mps 758 mmHg 66%
    01:00 +15°C° 0 mm 4 mps 758 mmHg 64%
    02:00 +15°C° 0 mm 4 mps 758 mmHg 62%
    03:00 +14°C° 0.1 mm 5 mps 758 mmHg 63%
    04:00 +14°C° 0.1 mm 5 mps 758 mmHg 64%
    05:00 +14°C° 0.1 mm 5 mps 758 mmHg 65%
    06:00 +15°C° 0.2 mm 5 mps 758 mmHg 60%
    07:00 +17°C° 0.2 mm 5 mps 759 mmHg 54%
    08:00 +20°C° 0.2 mm 5 mps 759 mmHg 49%
    09:00 +21°C° 0.1 mm 6 mps 759 mmHg 47%
    10:00 +21°C° 0.1 mm 6 mps 759 mmHg 46%
    11:00 +22°C° 0.1 mm 7 mps 759 mmHg 45%
    12:00 +22°C° 0.3 mm 7 mps 759 mmHg 47%
    13:00 +22°C° 0.3 mm 6 mps 759 mmHg 50%
    14:00 +21°C° 0.3 mm 6 mps 759 mmHg 53%
    15:00 +21°C° 0.2 mm 6 mps 759 mmHg 56%
    16:00 +20°C° 0.2 mm 5 mps 759 mmHg 60%
    17:00 +19°C° 0.2 mm 5 mps 759 mmHg 64%
    18:00 +19°C° 0.1 mm 5 mps 759 mmHg 68%
    19:00 +18°C° 0.1 mm 4 mps 759 mmHg 72%
    20:00 +17°C° 0.1 mm 4 mps 759 mmHg 76%
    21:00 +17°C° 0.1 mm 4 mps 759 mmHg 79%
    22:00 +17°C° 0.1 mm 4 mps 759 mmHg 81%
    23:00 +15°C° 0.1 mm 4 mps 759 mmHg 83%

    Mañana, 21 Octubre, Domingo

    Tiempo Temperatura Precipitaciones Viento Presión Humedad
    00:00 +15°C° 0.1 mm 4 mps 759 mmHg 86%
    01:00 +16°C° 0.1 mm 3 mps 759 mmHg 88%
    02:00 +16°C° 0.1 mm 3 mps 759 mmHg 91%
    03:00 +16°C° 0 mm 3 mps 759 mmHg 91%
    04:00 +16°C° 0 mm 3 mps 759 mmHg 91%
    05:00 +16°C° 0 mm 3 mps 760 mmHg 92%
    06:00 +17°C° 0.1 mm 4 mps 760 mmHg 85%
    07:00 +19°C° 0.1 mm 4 mps 760 mmHg 79%
    08:00 +20°C° 0.1 mm 4 mps 761 mmHg 72%
    09:00 +22°C° 0.1 mm 5 mps 761 mmHg 66%
    10:00 +23°C° 0.1 mm 5 mps 761 mmHg 59%
    11:00 +26°C° 0.1 mm 5 mps 761 mmHg 53%
    12:00 +26°C° 0 mm 5 mps 761 mmHg 51%
    13:00 +26°C° 0 mm 4 mps 760 mmHg 49%
    14:00 +26°C° 0 mm 4 mps 760 mmHg 47%
    15:00 +25°C° 0 mm 4 mps 760 mmHg 54%
    16:00 +22°C° 0 mm 3 mps 761 mmHg 61%
    17:00 +21°C° 0 mm 2 mps 761 mmHg 69%
    18:00 +20°C° 0 mm 2 mps 761 mmHg 74%
    19:00 +19°C° 0 mm 2 mps 762 mmHg 79%
    20:00 +19°C° 0 mm 1 mps 762 mmHg 84%
    21:00 +18°C° 0 mm 2 mps 762 mmHg 86%
    22:00 +18°C° 0 mm 2 mps 762 mmHg 87%
    23:00 +18°C° 0 mm 2 mps 762 mmHg 88%

    Pasado mañana, 22 Octubre, Lunes

    Tiempo Temperatura Precipitaciones Viento Presión Humedad
    00:00 +17°C° 0 mm 2 mps 762 mmHg 88%
    01:00 +17°C° 0 mm 2 mps 762 mmHg 88%
    02:00 +17°C° 0 mm 3 mps 762 mmHg 89%
    03:00 +17°C° 0 mm 3 mps 762 mmHg 89%
    04:00 +17°C° 0 mm 3 mps 762 mmHg 90%
    05:00 +17°C° 0 mm 3 mps 762 mmHg 90%
    06:00 +19°C° 0 mm 3 mps 762 mmHg 83%
    07:00 +20°C° 0 mm 4 mps 762 mmHg 76%
    08:00 +22°C° 0 mm 4 mps 763 mmHg 69%
    09:00 +25°C° 0 mm 4 mps 763 mmHg 60%
    10:00 +27°C° 0 mm 4 mps 763 mmHg 52%
    11:00 +28°C° 0 mm 4 mps 763 mmHg 43%
    12:00 +29°C° 0 mm 4 mps 762 mmHg 41%
    13:00 +29°C° 0 mm 3 mps 762 mmHg 39%
    14:00 +30°C° 0 mm 3 mps 762 mmHg 37%
    15:00 +28°C° 0 mm 2 mps 762 mmHg 43%
    16:00 +26°C° 0 mm 2 mps 762 mmHg 50%
    17:00 +24°C° 0 mm 1 mps 762 mmHg 56%
    18:00 +24°C° 0 mm 1 mps 762 mmHg 60%
    19:00 +23°C° 0 mm 1 mps 763 mmHg 65%
    20:00 +21°C° 0 mm 2 mps 763 mmHg 70%
    21:00 +21°C° 0 mm 2 mps 763 mmHg 70%
    22:00 +20°C° 0 mm 2 mps 763 mmHg 70%
    23:00 +20°C° 0 mm 2 mps 763 mmHg 71%

    23 Octubre, Martes

    Tiempo Temperatura Precipitaciones Viento Presión Humedad
    00:00 +20°C° 0 mm 2 mps 763 mmHg 70%
    01:00 +20°C° 0 mm 2 mps 763 mmHg 70%
    02:00 +20°C° 0 mm 2 mps 762 mmHg 70%
    03:00 +19°C° 0 mm 3 mps 762 mmHg 69%
    04:00 +19°C° 0 mm 3 mps 762 mmHg 69%
    05:00 +19°C° 0 mm 4 mps 762 mmHg 68%
    06:00 +20°C° 0.1 mm 4 mps 763 mmHg 66%
    07:00 +22°C° 0.1 mm 5 mps 763 mmHg 64%
    08:00 +23°C° 0.1 mm 5 mps 763 mmHg 62%
    09:00 +24°C° 0 mm 6 mps 763 mmHg 57%
    10:00 +26°C° 0 mm 6 mps 763 mmHg 53%
    11:00 +28°C° 0 mm 7 mps 763 mmHg 48%
    12:00 +28°C° 0 mm 7 mps 763 mmHg 49%
    13:00 +27°C° 0 mm 7 mps 763 mmHg 50%
    14:00 +27°C° 0 mm 7 mps 762 mmHg 50%
    15:00 +26°C° 0 mm 6 mps 762 mmHg 55%
    16:00 +24°C° 0 mm 6 mps 763 mmHg 60%
    17:00 +23°C° 0 mm 5 mps 763 mmHg 64%
    18:00 +22°C° 0 mm 5 mps 763 mmHg 69%
    19:00 +21°C° 0 mm 6 mps 763 mmHg 74%
    20:00 +20°C° 0 mm 6 mps 764 mmHg 79%
    21:00 +20°C° 0 mm 6 mps 764 mmHg 82%
    22:00 +19°C° 0 mm 6 mps 764 mmHg 85%
    23:00 +19°C° 0 mm 6 mps 764 mmHg 88%

    24 Octubre, Miércoles

    Tiempo Temperatura Precipitaciones Viento Presión Humedad
    00:00 +19°C° 0 mm 6 mps 764 mmHg 89%
    01:00 +17°C° 0 mm 6 mps 764 mmHg 90%
    02:00 +17°C° 0 mm 6 mps 763 mmHg 91%
    03:00 +17°C° 0 mm 6 mps 763 mmHg 90%
    04:00 +17°C° 0 mm 6 mps 763 mmHg 90%
    05:00 +16°C° 0 mm 6 mps 763 mmHg 90%
    06:00 +19°C° 0 mm 6 mps 764 mmHg 81%
    07:00 +20°C° 0 mm 6 mps 764 mmHg 72%
    08:00 +22°C° 0 mm 6 mps 764 mmHg 64%
    09:00 +23°C° 0 mm 6 mps 764 mmHg 57%
    10:00 +26°C° 0 mm 6 mps 764 mmHg 50%
    11:00 +28°C° 0 mm 6 mps 764 mmHg 43%
    12:00 +28°C° 0 mm 6 mps 764 mmHg 41%
    13:00 +29°C° 0 mm 5 mps 763 mmHg 38%
    14:00 +29°C° 0 mm 5 mps 763 mmHg 36%
    15:00 +27°C° 0 mm 4 mps 763 mmHg 42%
    16:00 +26°C° 0 mm 4 mps 763 mmHg 48%
    17:00 +23°C° 0 mm 4 mps 763 mmHg 54%
    18:00 +22°C° 0 mm 3 mps 763 mmHg 59%
    19:00 +21°C° 0 mm 3 mps 763 mmHg 63%
    20:00 +20°C° 0 mm 3 mps 763 mmHg 68%
    21:00 +20°C° 0 mm 3 mps 763 mmHg 70%
    22:00 +19°C° 0 mm 3 mps 763 mmHg 71%
    23:00 +19°C° 0 mm 3 mps 763 mmHg 72%

    25 Octubre, Jueves

    Tiempo Temperatura Precipitaciones Viento Presión Humedad
    00:00 +19°C° 0 mm 3 mps 763 mmHg 73%
    01:00 +18°C° 0 mm 4 mps 763 mmHg 74%
    02:00 +18°C° 0 mm 4 mps 762 mmHg 75%
    03:00 +18°C° 0 mm 4 mps 762 mmHg 76%
    04:00 +17°C° 0 mm 4 mps 762 mmHg 78%
    05:00 +17°C° 0 mm 4 mps 762 mmHg 79%
    06:00 +19°C° 0 mm 5 mps 763 mmHg 73%
    07:00 +20°C° 0 mm 5 mps 763 mmHg 67%
    08:00 +22°C° 0 mm 5 mps 763 mmHg 61%
    09:00 +23°C° 0 mm 5 mps 763 mmHg 52%
    10:00 +26°C° 0 mm 5 mps 763 mmHg 44%
    11:00 +28°C° 0 mm 5 mps 763 mmHg 36%
    12:00 +28°C° 0 mm 5 mps 762 mmHg 35%
    13:00 +29°C° 0 mm 5 mps 761 mmHg 34%
    14:00 +29°C° 0 mm 5 mps 761 mmHg 32%
    15:00 +27°C° 0 mm 4 mps 761 mmHg 38%
    16:00 +26°C° 0 mm 3 mps 761 mmHg 43%
    17:00 +24°C° 0 mm 3 mps 761 mmHg 48%
    18:00 +23°C° 0 mm 2 mps 761 mmHg 50%
    19:00 +23°C° 0 mm 2 mps 761 mmHg 52%
    20:00 +21°C° 0 mm 2 mps 762 mmHg 54%
    21:00 +22°C° 0 mm 1 mps 761 mmHg 55%
    22:00 +21°C° 0 mm 1 mps 761 mmHg 55%
    23:00 +21°C° 0 mm 1 mps 761 mmHg 55%
    Mostrar más